RH
41 38 37 42 42 38 42 46 60 48 39 34 34 36 38 41 41 41 43 48 48 47 49 49 50 54 59 62 59 65 62 57 61 60 59 56 54 53 52 50 43 42 41 42
59 48 41 49 41 39 43 44 46 45 45 35 36 39 44 44 45 48 53 52 53 56 51 43 45 54 63 52 56 69 60 59 54 53 50 46 46 43 38 37 39 41 42 43
83 61 62 78 51 39 38 41 41 50 38 40 44 48 50 50 51 60 65 61 62 56 41 44 50 64 51 49 59 64 56 51 53 53 44 42 38 35 37 40 42 45 46 51
96 91 83 45 34 36 41 39 33 36 42 48 48 47 43 55 66 80 74 58 47 42 39 44 53 52 50 51 55 55 52 50 54 48 44 38 37 38 40 41 43 45 50 54
96 70 51 43 40 42 44 45 40 48 52 53 49 45 50 72 82 69 65 53 45 41 41 45 53 51 52 52 51 50 51 54 58 48 46 38 38 40 42 45 47 50 55 57
88 94 83 46 39 40 43 56 52 66 79 79 58 82 90 66 75 66 48 43 39 35 40 50 55 52 56 54 51 50 54 64 52 50 45 40 42 44 48 47 49 58 69 72
86 92 67 42 45 44 82 78 69 80 82 83 84 90 79 73 55 39 38 38 37 33 34 43 49 54 58 50 47 46 50 53 53 50 42 43 44 46 49 51 59 83 90 84
92 98 95 43 46 82 63 73 83 80 72 70 72 71 55 40 35 33 36 36 33 34 36 41 48 54 54 42 40 48 51 53 54 48 45 46 47 48 52 55 65 86 81 74
64 64 42 42 52 53 68 78 73 75 64 68 63 46 37 34 32 33 36 34 34 39 44 43 46 55 49 40 48 57 51 51 50 49 50 50 51 56 57 58 81 78 63 60
70 56 50 55 51 60 71 78 76 74 57 50 46 37 35 32 32 36 34 35 41 42 42 46 50 63 57 56 59 54 49 48 49 50 54 56 58 58 55 66 80 64 60 60
73 65 60 52 66 78 76 79 79 56 48 40 34 34 32 32 32 32 36 40 42 43 44 43 46 69 67 66 55 46 46 49 55 60 64 64 59 57 65 73 76 72 66 69
96 69 70 71 72 68 82 70 50 44 38 33 33 34 33 30 32 35 38 45 44 46 50 50 51 57 66 61 64 62 59 58 64 75 72 72 59 60 68 76 72 79 91 89
72 67 65 68 70 64 56 45 41 38 36 37 37 32 33 37 38 43 44 45 48 57 59 58 66 74 65 84 83 91 83 85 77 80 74 69 70 70 68 66 76 89 86 89
70 70 74 62 61 53 50 41 42 42 41 37 34 38 40 40 41 42 46 55 66 68 68 65 67 74 80 83 87 92 92 85 84 76 76 77 80 79 76 74 70 68 82 82
64 62 60 56 52 46 43 42 44 37 34 38 39 43 48 48 48 54 64 77 80 79 66 63 73 79 77 89 84 81 87 83 94 93 93 88 86 82 76 72 67 70 65 66
56 53 50 48 44 42 40 35 36 40 40 40 42 47 52 56 60 71 87 95 98 87 82 91 98 92 89 82 74 70 77 90 90 88 85 82 81 79 74 71 67 71 66 75
64 63 56 49 36 36 39 41 44 44 54 54 62 73 76 80 93 88 89 93 100 99 98 100 100 88 86 79 79 71 77 81 87 82 81 82 83 79 77 73 72 71 69 87
45 40 38 38 40 44 49 50 60 66 68 70 82 88 90 90 89 90 87 92 100 100 99 99 97 92 84 77 79 80 87 92 88 86 84 85 84 83 82 81 74 74 74 78
38 36 40 46 51 57 58 59 66 75 81 87 92 93 94 95 95 96 94 97 100 99 91 90 86 82 85 86 83 85 92 96 88 83 90 90 89 88 85 85 80 79 79 75
39 42 50 55 58 66 70 68 75 82 83 86 94 97 96 93 92 96 100 98 99 90 93 86 82 78 78 87 86 82 89 96 90 91 92 91 90 89 90 91 89 83 84 81
52 55 66 68 71 67 69 70 79 88 82 87 95 96 97 92 94 100 99 96 94 84 85 92 90 80 80 86 85 88 95 99 96 94 91 90 92 92 91 92 90 88 85 84
53 61 72 69 76 81 74 77 91 86 85 87 94 98 100 98 97 97 97 98 99 90 98 98 87 83 76 82 84 98 97 96 94 95 95 93 92 94 92 92 92 92 88 88
59 67 71 78 82 80 79 80 84 86 90 97 100 100 99 99 99 99 92 98 99 99 99 100 93 76 77 93 98 98 98 96 96 94 95 93 95 97 96 95 95 96 94 90
65 71 74 77 83 94 92 73 85 93 96 89 88 89 96 98 98 98 97 99 98 90 95 97 77 79 78 92 99 100 100 98 98 97 97 97 100 100 100 100 100 99 99 99
74 80 82 89 88 70 68 72 82 83 83 82 91 94 94 99 100 99 99 99 99 100 97 83 77 86 86 96 98 100 100 100 100 100 100 99 100 100 100 100 100 100 100 100
70 68 68 75 81 76 76 77 83 85 87 93 92 92 94 99 100 98 96 97 86 92 96 95 86 91 93 98 100 100 100 100 100 100 100 100 100 100 100 100 100 100 100 100
73 79 81 78 75 76 79 80 85 92 95 98 97 95 98 100 100 99 98 98 98 92 96 98 97 97 96 100 100 100 100 100 100 100 100 100 100 100 100 100 100 100 100 100
Wind_Speed
7 10 13 11 13 12 14 14 10 14 14 14 13 12 10 4 11 15 13 12 12 11 13 16 14 12 10 10 11 9 8 12 8 7 8 11 13 14 15 15 16 16 17 16
4 8 10 12 14 14 13 12 13 14 15 6 7 7 5 12 14 14 11 12 12 13 17 14 14 16 11 13 11 6 9 5 6 9 11 12 13 15 17 17 15 16 16 17
4 9 13 6 3 4 4 4 8 10 8 7 6 9 13 16 14 9 11 12 12 14 17 17 19 14 16 16 9 7 8 6 8 10 12 13 15 17 17 17 17 18 17 16
3 5 3 3 5 9 13 13 8 9 3 5 9 15 17 6 7 7 10 13 14 17 20 22 20 17 16 13 10 10 10 10 10 11 11 14 16 16 17 18 18 17 16 17
2 4 14 12 4 2 2 11 3 3 8 14 18 16 6 4 4 12 13 16 19 21 24 25 20 18 16 14 13 12 13 12 12 11 12 14 15 16 18 18 18 17 17 19
3 4 4 3 3 4 4 8 3 9 15 17 17 12 4 15 11 15 17 17 20 23 24 22 18 17 16 16 15 15 12 13 12 11 11 14 15 18 18 19 19 17 18 19
6 6 7 6 5 1 3 3 11 6 5 8 6 4 12 10 13 15 17 19 21 23 23 22 21 18 16 15 13 10 10 12 13 11 12 13 16 19 20 20 19 14 16 18
3 4 6 2 2 2 5 5 1 3 4 7 7 8 9 11 13 17 18 20 23 25 25 25 22 17 16 12 10 10 13 15 13 11 11 14 17 20 21 21 17 15 18 18
7 6 4 6 8 4 1 4 6 2 4 6 7 9 11 12 14 17 20 22 24 25 26 25 22 18 16 13 11 12 15 13 12 11 12 15 18 20 19 17 14 16 19 20
6 10 11 11 5 4 1 1 2 5 3 5 9 10 13 14 17 19 21 23 23 24 25 25 24 17 14 13 13 15 15 12 11 11 12 15 16 16 15 14 12 16 18 19
11 13 11 4 1 3 3 3 5 6 6 7 8 12 14 14 18 20 21 21 22 23 25 26 24 15 11 14 13 14 12 10 10 9 11 13 13 12 11 10 9 13 14 17
4 4 6 5 3 8 6 7 4 4 6 9 13 14 18 18 21 21 22 23 23 25 25 25 19 16 14 8 9 9 9 8 8 9 10 10 11 13 8 7 9 8 9 11
5 5 6 3 2 5 3 2 5 8 11 13 19 17 19 20 22 23 23 24 23 23 24 23 20 13 8 9 7 6 6 6 7 7 8 8 10 11 11 10 9 7 9 11
4 4 2 5 2 2 3 5 9 14 18 18 18 19 21 23 26 25 24 25 23 22 22 17 11 10 7 6 6 7 7 8 7 6 5 8 9 9 10 12 13 12 10 10
3 2 1 6 3 3 7 10 12 13 18 19 20 21 23 25 25 25 24 21 20 20 18 13 10 8 6 4 6 8 8 7 6 4 5 7 7 9 9 11 12 12 12 11
7 6 4 1 4 6 9 11 13 14 18 21 22 23 23 23 24 22 19 17 16 17 14 12 8 6 4 5 7 7 7 5 3 4 6 7 7 8 10 10 10 10 11 11
6 4 2 4 7 9 10 12 13 16 20 21 21 21 24 22 18 18 19 17 16 16 13 10 8 5 5 5 7 8 6 5 4 4 6 7 6 7 8 9 9 9 9 8
4 2 2 6 8 9 11 14 14 16 18 21 24 20 18 16 19 22 21 18 17 14 10 8 6 4 5 5 6 8 6 4 4 4 5 6 6 6 7 8 8 8 8 7
1 4 7 8 9 11 13 15 16 19 22 20 19 20 20 21 22 21 18 16 14 11 8 6 5 5 5 5 6 5 4 4 5 4 5 6 7 6 7 7 8 7 7 7
6 8 11 12 12 12 14 19 19 19 19 19 20 19 19 20 22 21 20 17 17 13 7 8 5 6 7 7 5 7 7 7 6 4 5 7 7 7 7 6 6 7 7 6
10 12 11 14 15 19 19 20 19 18 22 20 18 19 20 24 23 21 17 14 11 7 9 13 9 6 6 6 6 6 7 6 5 5 6 7 8 8 7 7 7 7 7 6
12 12 14 16 16 17 19 18 16 22 21 21 20 19 19 20 20 19 18 19 11 7 7 10 8 8 6 6 5 4 5 6 6 6 7 7 8 7 7 7 7 7 6 6
14 13 14 16 15 16 20 23 22 20 18 16 18 20 20 21 21 18 14 11 8 11 10 10 9 8 6 6 6 5 4 4 5 5 5 6 7 7 7 8 7 7 7 6
14 13 14 16 15 14 15 19 16 16 16 18 20 22 24 24 23 17 17 13 10 9 12 12 10 10 8 7 7 8 8 8 8 9 8 8 7 7 7 7 7 7 7 7
15 15 13 13 11 13 15 17 18 17 17 19 19 21 22 24 20 22 13 10 10 12 12 14 12 11 10 8 6 7 7 7 7 8 9 9 9 8 8 8 8 8 8 8
14 14 14 13 14 14 15 15 16 18 18 18 20 21 23 24 21 16 11 11 9 9 12 12 14 13 11 9 8 7 7 6 6 6 7 8 9 9 9 9 9 9 9 9
15 13 11 11 12 13 15 16 18 18 16 17 21 22 22 24 20 13 12 14 15 15 13 12 12 13 12 10 9 8 7 6 6 6 6 6 7 8 9 10 10 10 10 9
Wind_Direction
289 291 289 285 275 266 250 249 263 273 300 315 327 329 330 317 323 328 331 337 331 324 328 312 307 309 310 312 319 316 322 327 331 339 332 321 319 322 323 319 318 317 315 315
288 298 294 293 272 263 256 254 259 274 285 360 334 325 333 330 323 322 327 338 335 316 305 306 312 317 319 320 308 273 315 304 321 327 329 329 325 321 321 322 325 321 321 320
281 316 316 276 238 164 269 207 283 291 334 333 342 331 326 324 329 335 341 329 305 308 308 320 316 310 313 316 287 277 304 281 317 322 326 327 326 325 325 324 322 321 321 322
290 301 272 52 299 288 292 291 286 278 299 324 321 326 321 10 355 349 316 310 313 315 316 318 312 308 311 309 288 287 291 284 304 320 316 324 323 323 321 320 320 320 320 318
258 262 296 293 80 82 279 293 351 353 337 331 325 323 359 50 252 311 302 307 311 314 314 312 302 310 308 300 289 287 285 292 301 304 309 317 317 319 321 321 319 319 318 317
187 251 263 21 56 330 298 266 61 352 339 318 326 315 313 327 320 302 313 315 317 320 316 309 300 302 293 293 291 290 289 282 290 294 300 308 315 320 322 320 316 318 316 316
237 251 270 324 60 258 287 5 339 343 320 328 318 256 308 306 292 309 316 315 321 318 318 312 305 297 286 296 291 292 290 285 285 288 296 305 314 319 321 321 318 319 310 314
199 256 264 103 297 264 325 343 262 246 302 303 303 306 306 309 314 317 318 322 325 323 321 317 309 293 286 294 293 297 298 294 282 286 297 306 315 318 320 317 323 318 317 317
198 241 269 301 296 283 176 220 269 284 307 300 292 309 316 314 317 320 321 323 325 324 320 319 313 291 279 294 301 301 299 290 283 289 298 308 317 320 319 324 325 319 320 325
274 261 271 297 313 237 260 112 152 230 278 265 300 315 317 322 322 321 321 322 325 323 323 322 318 299 285 298 305 300 291 292 289 294 305 312 320 319 322 327 325 321 326 327
278 278 291 272 353 59 208 159 214 240 273 301 316 317 318 315 316 319 316 320 322 321 321 320 317 311 306 311 305 303 301 297 298 300 309 317 322 327 322 333 328 324 328 327
250 284 272 282 328 287 217 221 248 286 302 310 313 311 314 313 316 314 318 317 318 321 323 319 316 309 317 323 321 310 304 307 312 310 315 320 328 327 325 325 335 332 340 337
277 204 247 282 140 198 243 303 312 308 300 301 306 311 312 310 309 313 308 315 316 317 317 319 312 311 313 313 325 325 319 322 318 310 316 327 329 332 330 332 332 322 338 345
78 107 219 190 219 161 294 284 288 297 301 301 301 306 309 311 312 314 314 316 313 313 315 319 308 307 306 316 322 323 320 315 321 318 318 326 333 333 332 335 330 337 343 348
78 182 116 127 158 237 276 306 306 303 311 313 310 307 311 311 313 314 314 311 311 312 308 308 302 302 307 312 329 329 321 316 323 318 316 325 327 331 334 333 333 338 340 346
150 135 145 196 307 315 313 309 310 312 317 317 313 313 313 312 309 310 309 304 307 308 303 295 286 290 296 310 316 319 324 318 331 324 328 331 330 333 338 336 333 340 345 348
151 184 231 290 308 306 302 304 309 313 312 312 311 313 312 309 302 301 304 304 295 294 293 279 275 272 298 312 307 311 305 302 310 322 337 336 330 332 336 335 333 337 347 342
93 72 295 293 297 301 306 311 308 306 304 307 305 305 303 299 295 296 300 301 302 295 284 269 248 263 293 291 310 317 300 275 286 320 327 331 324 318 327 330 331 333 342 345
286 292 296 293 296 302 303 304 303 300 302 303 303 303 302 295 295 288 292 287 288 280 284 238 219 280 283 281 300 308 299 277 279 301 314 318 312 306 311 321 328 327 333 338
293 290 289 290 292 299 293 295 299 300 304 307 303 300 299 307 310 300 286 278 283 270 259 219 221 288 281 272 291 290 289 273 270 272 299 312 310 304 302 304 313 320 321 325
290 289 281 290 289 295 293 298 300 296 304 304 291 290 291 299 303 300 285 277 291 259 235 221 222 263 274 261 280 293 288 263 255 267 291 308 310 302 296 299 309 315 313 313
294 292 284 289 285 288 296 300 290 294 294 298 297 294 295 300 306 303 294 273 274 246 216 210 232 246 250 260 260 287 283 265 274 278 275 290 311 304 298 300 301 309 310 306
288 280 279 280 281 291 297 299 297 292 288 300 309 309 305 300 299 291 295 293 244 231 214 213 223 227 238 241 241 252 268 267 276 280 288 288 298 299 295 299 297 296 300 302
276 275 280 289 292 293 294 310 309 301 293 309 307 309 304 297 300 298 292 271 241 232 212 219 223 221 233 245 245 248 258 270 271 270 272 275 280 286 285 288 292 290 287 286
270 284 285 283 281 289 303 308 311 308 303 311 311 308 311 306 287 307 279 278 254 231 223 224 228 227 235 245 251 252 257 263 271 277 278 273 271 278 283 284 281 283 282 277
280 281 282 277 273 290 297 304 302 305 306 305 309 312 314 313 306 305 275 262 247 233 229 233 228 227 244 244 247 248 249 262 274 278 277 277 269 270 275 279 282 278 276 272
279 271 275 277 279 288 291 297 302 296 297 298 300 309 309 314 306 295 270 268 256 246 237 230 232 238 245 235 237 238 238 253 269 275 277 278 279 278 280 280 280 281 274 269